Tracking 20721 objects as of 2-Jun-2020
HD Live streaming from Space Station
objects crossing your sky now

METEOR 2-17 DEB

Track METEOR 2-17 DEB now!
10-day predictions


NORAD ID: 35373
Int'l Code: 1988-005AH
Perigee: 907.2 km
Apogee: 944.1 km
Inclination: 82.5 °
Period: 103.4 minutes
Semi major axis: 7296 km
RCS: 0.0092 m2 (small)
Launch date: January 30, 1988
Source: Commonwealth of Independent States (former USSR) (CIS)
Launch site: PLESETSK MISSILE AND SPACE COMPLEX (PKMTR)

Note: This is SATELLITE DEBRIS
aabbcc
Your satellite tracking list
Your tracking list is empty




NASA's NSSDC Master Catalog

Two Line Element Set (TLE):
1 35373U 88005AH  20150.61815725  .00000362  00000-0  26673-3 0  9993
2 35373  82.5283 251.3667 0025300 138.8032 221.5049 13.92885501579541
Source of the keplerian elements: AFSPC